Change the Weather History Date:

Tuesday, March 25, 2014

  Actual Average (KTOL) Record (KTOL)
Temperature  
Mean Temperature 27 °F 41 °F  
Max Temperature 33 °F 51 °F 82 °F (1945)
Min Temperature 21 °F 31 °F -4 °F (1974)
Degree Days  
Heating Degree Days 38 24  
Month to date heating degree days 714  
Since 1 July heating degree days 5290  
Cooling Degree Days 0 0  
Month to date cooling degree days 0  
Year to date cooling degree days 0  
Moisture  
Dew Point 16 °F    
Average Humidity 64    
Maximum Humidity 86    
Minimum Humidity 41    
Precipitation  
Precipitation 0.00 in 0.09 in 1.55 in (1964)
Month to date precipitation 1.94  
Year to date precipitation 6.06  
Snow  
Snow 0.00 in 0.10 in - ()
Month to date snowfall 5.0  
Since 1 July snowfall 35.5  
Snow Depth -    
Sea Level Pressure  
Sea Level Pressure 30.01 in    
Wind  
Wind Speed 5 mph (West)    
Max Wind Speed 16 mph    
Max Gust Speed 28 mph    
Visibility 8 miles    
Events Snow    
T = Trace of Precipitation, MM = Missing Value Source: NWS Daily Summary

Daily Weather History Graph

Daily Weather History Graph

Search for Another Location

Airport or City:

Trip Planner

Search our weather history database for the weather conditions in past years. The results will help you decide how hot, cold, wet, or windy it might be!

Date:

Astronomy

Mar. 25, 2014 Rise Set
Actual Time 7:29 AM EDT 7:52 PM EDT
Civil Twilight 7:01 AM EDT 8:20 PM EDT
Nautical Twilight 6:28 AM EDT 8:53 PM EDT
Astronomical Twilight 5:55 AM EDT 9:26 PM EDT
Moon 3:54 AM EDT (3/25) 2:17 PM EDT (3/25)
Length of Visible Light 13h 18m
Length of Day
12h 22m
Waning Crescent, 32% of the Moon is Illuminated
Mar 25
Waning Crescent
Mar 30
New
Apr 7
First Quarter
Apr 15
Full
Apr 22
Last Quarter

Hourly Weather History & Observations

Time (EDT) Temp. Windchill Dew Point Humidity Pressure Visibility Wind Dir Wind Speed Gust Speed Precip Events Conditions
12:15 AM 24.8 °F - 14.0 °F 64% 30.10 in 10.0 mi Calm Calm - N/A   Clear
12:35 AM 24.8 °F - 14.0 °F 64% 30.10 in 10.0 mi Calm Calm - N/A   Clear
12:55 AM 23.0 °F - 15.8 °F 74% 30.09 in 10.0 mi Calm Calm - N/A   Clear
1:15 AM 23.0 °F - 14.0 °F 68% 30.08 in 10.0 mi Calm Calm - N/A   Clear
1:35 AM 23.0 °F - 15.8 °F 74% 30.07 in 10.0 mi Calm Calm - N/A   Clear
1:55 AM 23.0 °F - 17.6 °F 80% 30.06 in 10.0 mi Calm Calm - N/A   Clear
2:15 AM 23.0 °F - 17.6 °F 80% 30.06 in 10.0 mi Calm Calm - N/A   Clear
2:35 AM 21.2 °F - 15.8 °F 80% 30.05 in 10.0 mi Calm Calm - N/A   Clear
2:55 AM 21.2 °F 16.4 °F 14.0 °F 74% 30.05 in 10.0 mi SSW 3.5 mph - N/A   Clear
3:15 AM 23.0 °F 18.4 °F 14.0 °F 68% 30.03 in 10.0 mi SSW 3.5 mph - N/A   Clear
3:35 AM 21.2 °F 16.4 °F 14.0 °F 74% 30.03 in 10.0 mi SSW 3.5 mph - N/A   Clear
3:55 AM 23.0 °F 18.4 °F 15.8 °F 74% 30.02 in 10.0 mi South 3.5 mph - N/A   Clear
4:15 AM 23.0 °F 17.0 °F 14.0 °F 68% 30.01 in 10.0 mi South 4.6 mph - N/A   Clear
4:35 AM 23.0 °F 17.0 °F 14.0 °F 68% 30.00 in 10.0 mi SSW 4.6 mph - N/A   Clear
4:55 AM 23.0 °F 15.8 °F 14.0 °F 68% 29.99 in 10.0 mi SSW 5.8 mph - N/A   Scattered Clouds
5:15 AM 23.0 °F 17.0 °F 14.0 °F 68% 29.99 in 10.0 mi South 4.6 mph - N/A   Clear
5:35 AM 23.0 °F 17.0 °F 15.8 °F 74% 29.98 in 10.0 mi South 4.6 mph - N/A   Clear
5:55 AM 23.0 °F 15.8 °F 15.8 °F 74% 29.97 in 10.0 mi South 5.8 mph - N/A   Mostly Cloudy
6:15 AM 23.0 °F 15.8 °F 15.8 °F 74% 29.96 in 10.0 mi South 5.8 mph - N/A   Overcast
6:35 AM 24.8 °F 16.9 °F 15.8 °F 69% 29.96 in 10.0 mi South 6.9 mph - N/A   Overcast
6:55 AM 24.8 °F 16.9 °F 15.8 °F 69% 29.95 in 10.0 mi South 6.9 mph - N/A   Overcast
7:15 AM 26.6 °F 20.0 °F 14.0 °F 59% 29.95 in 10.0 mi SSW 5.8 mph - N/A   Overcast
7:35 AM 26.6 °F 19.1 °F 14.0 °F 59% 29.95 in 10.0 mi SSW 6.9 mph - N/A   Mostly Cloudy
7:55 AM 26.6 °F 17.5 °F 15.8 °F 64% 29.95 in 10.0 mi SSW 9.2 mph - N/A   Mostly Cloudy
8:15 AM 28.4 °F 19.1 °F 15.8 °F 59% 29.95 in 10.0 mi SSW 10.4 mph - N/A   Overcast
8:35 AM 28.4 °F 21.2 °F 17.6 °F 64% 29.94 in 10.0 mi South 6.9 mph - N/A   Overcast
8:55 AM 30.2 °F 23.4 °F 17.6 °F 60% 29.94 in 10.0 mi South 6.9 mph - N/A   Overcast
9:15 AM 30.2 °F 21.9 °F 19.4 °F 64% 29.95 in 3.0 mi WSW 9.2 mph - N/A Snow Light Snow
9:35 AM 28.4 °F 23.3 °F 23.0 °F 80% 29.95 in 0.8 mi WSW 4.6 mph - N/A Snow Light Snow
9:55 AM 28.4 °F 21.2 °F 24.8 °F 86% 29.95 in 2.0 mi West 6.9 mph - N/A Snow Light Snow
10:15 AM 30.2 °F 23.4 °F 23.0 °F 75% 29.95 in 5.0 mi West 6.9 mph - N/A Snow Light Snow
10:35 AM 30.2 °F 22.6 °F 23.0 °F 75% 29.95 in 3.0 mi West 8.1 mph - N/A Snow Light Snow
10:55 AM 30.2 °F 23.4 °F 23.0 °F 75% 29.96 in 1.2 mi West 6.9 mph - N/A Snow Light Snow
11:15 AM 30.2 °F 24.3 °F 23.0 °F 75% 29.96 in 7.0 mi WNW 5.8 mph - N/A   Overcast
11:35 AM 30.2 °F 24.3 °F 21.2 °F 69% 29.97 in 4.0 mi West 5.8 mph - N/A Snow Light Snow
11:55 AM 30.2 °F 22.6 °F 23.0 °F 75% 29.97 in 5.0 mi West 8.1 mph - N/A   Haze
12:15 PM 30.2 °F 23.4 °F 23.0 °F 75% 29.97 in 1.2 mi WNW 6.9 mph - N/A Snow Light Snow
12:35 PM 30.2 °F 22.6 °F 24.8 °F 80% 29.97 in 1.5 mi WNW 8.1 mph - N/A Snow Light Snow
12:55 PM 30.2 °F 23.4 °F 23.0 °F 75% 29.97 in 1.0 mi WNW 6.9 mph - N/A Snow Light Snow
1:15 PM 30.2 °F 21.9 °F 26.6 °F 86% 29.97 in 3.0 mi West 9.2 mph - N/A Snow Light Snow
1:35 PM 32.0 °F 22.1 °F 21.2 °F 64% 29.96 in 10.0 mi West 13.8 mph 19.6 mph N/A   Overcast
1:55 PM 30.2 °F 21.3 °F 24.8 °F 80% 29.97 in 5.0 mi NW 10.4 mph 23.0 mph N/A Snow Light Snow
2:15 PM 32.0 °F 22.5 °F 23.0 °F 69% 29.97 in 10.0 mi NW 12.7 mph 19.6 mph N/A   Mostly Cloudy
2:35 PM 32.0 °F 22.5 °F 19.4 °F 60% 29.95 in 10.0 mi West 12.7 mph 19.6 mph N/A   Scattered Clouds
2:55 PM 32.0 °F 22.5 °F 19.4 °F 60% 29.96 in 5.0 mi NNW 12.7 mph 20.7 mph N/A Snow Light Snow
3:15 PM 33.8 °F 24.8 °F 14.0 °F 44% 29.95 in 10.0 mi NW 12.7 mph 16.1 mph N/A   Mostly Cloudy
3:35 PM 32.0 °F 22.1 °F 17.6 °F 55% 29.96 in 10.0 mi WNW 13.8 mph 23.0 mph N/A   Mostly Cloudy
3:55 PM 33.8 °F 26.4 °F 14.0 °F 44% 29.96 in 10.0 mi NW 9.2 mph 20.7 mph N/A   Scattered Clouds
4:15 PM 32.0 °F 22.1 °F 17.6 °F 55% 29.97 in 10.0 mi WNW 13.8 mph 21.9 mph N/A   Mostly Cloudy
4:35 PM 32.0 °F 22.5 °F 17.6 °F 55% 29.97 in 10.0 mi WNW 12.7 mph 26.5 mph N/A   Mostly Cloudy
4:55 PM 32.0 °F 22.5 °F 17.6 °F 55% 29.98 in 10.0 mi WNW 12.7 mph 23.0 mph N/A   Mostly Cloudy
5:15 PM 32.0 °F 21.2 °F 12.2 °F 44% 29.98 in 10.0 mi West 16.1 mph 20.7 mph N/A   Mostly Cloudy
5:35 PM 32.0 °F 21.6 °F 14.0 °F 48% 29.99 in 10.0 mi WNW 15.0 mph 27.6 mph N/A   Mostly Cloudy
5:55 PM 32.0 °F 21.2 °F 12.2 °F 44% 29.99 in 10.0 mi West 16.1 mph 24.2 mph N/A   Mostly Cloudy
6:15 PM 32.0 °F 22.5 °F 10.4 °F 41% 30.00 in 10.0 mi NW 12.7 mph 24.2 mph N/A   Scattered Clouds
6:35 PM 30.2 °F 21.9 °F 14.0 °F 51% 30.02 in 10.0 mi WNW 9.2 mph 23.0 mph N/A   Mostly Cloudy
6:55 PM 30.2 °F 20.2 °F 12.2 °F 47% 30.02 in 10.0 mi West 12.7 mph 18.4 mph N/A   Mostly Cloudy
7:15 PM 30.2 °F 20.8 °F 10.4 °F 44% 30.03 in 10.0 mi West 11.5 mph 24.2 mph N/A   Scattered Clouds
7:35 PM 28.4 °F 19.1 °F 14.0 °F 55% 30.04 in 10.0 mi NW 10.4 mph 26.5 mph N/A   Mostly Cloudy
7:55 PM 28.4 °F 19.7 °F 15.8 °F 59% 30.06 in 7.0 mi NW 9.2 mph 19.6 mph N/A Snow Light Snow
8:15 PM 26.6 °F 16.2 °F 15.8 °F 64% 30.07 in 10.0 mi NW 11.5 mph 19.6 mph N/A   Mostly Cloudy
8:35 PM 26.6 °F 15.2 °F 10.4 °F 51% 30.07 in 10.0 mi WNW 13.8 mph 18.4 mph N/A   Scattered Clouds
8:55 PM 26.6 °F 17.5 °F 8.6 °F 47% 30.09 in 10.0 mi WNW 9.2 mph 21.9 mph N/A   Clear
9:15 PM 26.6 °F 17.5 °F 8.6 °F 47% 30.10 in 10.0 mi WNW 9.2 mph 16.1 mph N/A   Clear
9:35 PM 24.8 °F 14.6 °F 10.4 °F 54% 30.11 in 10.0 mi WNW 10.4 mph 19.6 mph N/A   Scattered Clouds
9:55 PM 24.8 °F 14.6 °F 10.4 °F 54% 30.12 in 10.0 mi WNW 10.4 mph 17.3 mph N/A   Scattered Clouds
10:15 PM 24.8 °F 14.6 °F 8.6 °F 50% 30.13 in 10.0 mi NW 10.4 mph 18.4 mph N/A   Clear
10:35 PM 23.0 °F 12.4 °F 10.4 °F 59% 30.14 in 10.0 mi WNW 10.4 mph 17.3 mph N/A   Clear
10:55 PM 23.0 °F 13.1 °F 10.4 °F 59% 30.14 in 10.0 mi WNW 9.2 mph 16.1 mph N/A   Clear
11:15 PM 23.0 °F 13.9 °F 10.4 °F 59% 30.15 in 10.0 mi WNW 8.1 mph - N/A   Clear
11:35 PM 23.0 °F 15.8 °F 10.4 °F 59% 30.16 in 10.0 mi WNW 5.8 mph - N/A   Clear
11:55 PM 23.0 °F 15.8 °F 10.4 °F 59% 30.17 in 10.0 mi WNW 5.8 mph - N/A   Clear